Flag for Italy Weather past 2 weeks in Bologna, Italy

Now
95 °F

Passing clouds.


Feels Like: 103 °F
Forecast: 72 / 99 °F
Wind: 9 mph from East

Location: Bologna / Borgo Panigale

Current Time: Jul 6, 2015 at 6:45:59 PM

Latest Report: Jul 6, 2015 at 5:50 PM


Visibility: N/A

Pressure: 30.01 "Hg

Humidity: 47%

Dew point: 72 °F

Location of BolognaLocation

Historic Weather in Bologna — Graph

°F

Bologna temperature yesterday

Maximum temperature yesterday: 95 °F (at 4:50 PM)
Minimum temperature yesterday: 73 °F (at 5:20 AM)
Average temperature yesterday: 84 °F

Past Weeks' High & Low Weather Summary

 TemperatureHumidityPressure
High97 °F (Jul 4, 5:20 PM)100% (Jun 24, 6:20 AM)30.24 "Hg (Jun 24, 6:20 AM)
Low57 °F (Jun 24, 6:20 AM)31% (Jun 23, 2:20 PM)29.71 "Hg (Jun 23, 4:50 PM)
Average77 °F59%30.07 "Hg
* Reported Jun 21 5:20 PM — Jul 6 5:20 PM, Bologna, Weather by CustomWeather, © 2015

Note: Actual official high and low records may vary slightly from our data, if they occured in-between our weather recording intervals... More about our weather records

Advertising

Bologna weather history for previous 24 hours

 ConditionsComfort  
Time TempWeatherWind HumidityBarometerVisibility
5:20 PM
Mon, Jul 6
95 °FPassing clouds.9 mph47%30.01 "HgN/A
3:50 PM97 °FPassing clouds.8 mph44%30.01 "HgN/A
3:20 PM97 °FSunny.6 mph44%30.04 "Hg10 mi
2:50 PM97 °FSunny.3 mph44%30.04 "Hg10 mi
2:20 PM97 °FSunny.3 mph44%30.04 "Hg10 mi
1:50 PM95 °FSunny.5 mph47%30.04 "Hg10 mi
1:20 PM95 °FSunny.3 mph47%30.04 "Hg10 mi
12:50 PM95 °FPassing clouds.3 mph47%30.07 "HgN/A
12:20 PM93 °FSunny.3 mph47%30.07 "Hg10 mi
11:50 AM93 °FSunny.2 mph49%30.07 "Hg10 mi
11:20 AM91 °FSunny.3 mph52%30.07 "Hg10 mi
10:50 AM90 °FPassing clouds.5 mph55%30.07 "HgN/A
10:20 AM88 °FPassing clouds.5 mph59%30.07 "HgN/A
9:50 AM86 °FPassing clouds.5 mph66%30.07 "HgN/A
9:20 AM84 °FPassing clouds.6 mph66%30.07 "HgN/A
8:50 AM82 °FSunny.5 mph70%30.07 "Hg10 mi
8:20 AM81 °FSunny.6 mph74%30.07 "Hg10 mi
7:50 AM81 °FSunny.5 mph70%30.07 "Hg10 mi
7:20 AM81 °FSunny.5 mph70%30.07 "Hg10 mi
6:50 AM79 °FSunny.5 mph74%30.04 "Hg10 mi
6:20 AM77 °FClear.7 mph74%30.04 "Hg10 mi
5:50 AM77 °FClear.7 mph74%30.04 "Hg10 mi
5:20 AM79 °FClear.6 mph70%30.04 "Hg10 mi
4:50 AM79 °FClear.6 mph70%30.04 "Hg10 mi
4:20 AM79 °FClear.3 mph70%30.04 "Hg10 mi
3:50 AM79 °FClear.8 mph74%30.01 "Hg10 mi
3:20 AM79 °FPassing clouds.5 mph74%30.04 "HgN/A
2:50 AM79 °FPassing clouds.2 mph74%30.04 "HgN/A
2:20 AM79 °FPassing clouds.2 mph79%30.04 "HgN/A
1:50 AM81 °FPassing clouds.3 mph74%30.04 "HgN/A
1:20 AM81 °FPassing clouds.5 mph74%30.07 "HgN/A
12:50 AM81 °FPassing clouds.3 mph74%30.04 "HgN/A
12:20 AM79 °FPassing clouds.3 mph79%30.04 "HgN/A
11:50 PM
Sun, Jul 5
77 °FClear.6 mph74%30.04 "Hg10 mi
11:20 PM81 °FClear.5 mph66%30.04 "Hg10 mi
10:50 PM81 °FClear.6 mph66%30.04 "Hg10 mi
10:20 PM81 °FClear.7 mph66%30.04 "Hg10 mi
9:50 PM82 °FSunny.7 mph62%30.04 "Hg10 mi
9:20 PM84 °FSunny.8 mph58%30.04 "Hg10 mi
8:50 PM86 °FSunny.8 mph59%30.04 "Hg10 mi
8:20 PM88 °FSunny.10 mph55%30.04 "Hg10 mi
7:50 PM90 °FSunny.9 mph52%30.01 "Hg10 mi
7:20 PM90 °FSunny.9 mph52%30.01 "Hg10 mi
6:50 PM91 °FPassing clouds.9 mph52%30.01 "HgN/A
6:20 PM93 °FPassing clouds.9 mph47%30.01 "HgN/A
Weather by CustomWeather, © 2015

See weather overviewHow to use our weather pages